Home > Weather > Sanandaj > Past weeks

Flag for Iran Weather for the Past 2 Weeks in Sanandaj, Iran

Now
39 °F

Sunny.


Feels Like: 39 °F
Forecast: 17 / 52 °F
Wind: 2 mph from East

Location: Sanandaj Airport

Current Time: Feb 12, 2016 at 7:44:06 PM

Latest Report: Feb 12, 2016 at 6:22 PM


Visibility: 10 mi

Pressure: 30.15 "Hg (25.05 "Hg at 1502m altitude)

Humidity: 56%

Dew point: 25 °F

Location of SanandajLocation

Historic Weather in Sanandaj — Graph

°F

Sanandaj Temperature Yesterday

Maximum temperature yesterday: 39 °F (at 3:30 PM)
Minimum temperature yesterday: 19 °F (at 3:30 AM)
Average temperature yesterday: 28 °F

High & Low Weather Summary for the Past Weeks

 TemperatureHumidityPressure
High63 °F (Feb 5, 3:26 PM)100% (Feb 7, 7:23 PM)30.42 "Hg (Feb 7, 7:23 PM)
Low14 °F (Feb 10, 6:22 AM)10% (Feb 6, 12:28 PM)29.83 "Hg (Feb 7, 3:00 PM)
Average34 °F66%30.19 "Hg
* Reported Jan 28 5:24 PM — Feb 12 5:22 PM, Sanandaj, Weather by CustomWeather, © 2016

Note: Actual official high and low records may vary slightly from our data, if they occured in-between our weather recording intervals... More about our weather records

Advertising

Sanandaj Weather History for the Previous 24 Hours

 ConditionsComfort  
Time TempWeatherWind HumidityBarometerVisibility
5:22 PM
Fri, Feb 12
45 °FSunny.2 mph37%30.15 "Hg10 mi
4:21 PM45 °FSunny.2 mph37%30.15 "Hg10 mi
3:21 PM45 °FSunny.2 mph39%30.15 "Hg10 mi
2:21 PM41 °FSunny.2 mph49%30.15 "Hg10 mi
1:30 PM39 °FSunny.2 mph56%30.18 "Hg10 mi
12:30 PM36 °FSunny.2 mph60%30.18 "Hg10 mi
11:30 AM34 °FSunny.No wind65%30.21 "Hg10 mi
10:30 AM30 °FSunny.No wind64%30.21 "Hg10 mi
9:30 AM25 °FSunny.No wind74%30.21 "Hg10 mi
8:30 AM21 °FSunny.2 mph86%30.21 "Hg10 mi
7:21 AM19 °FPassing clouds.No wind86%30.18 "HgN/A
6:21 AM19 °FClear.No wind86%30.18 "Hg10 mi
5:22 AM21 °FClear.No wind80%30.18 "Hg10 mi
4:21 AM21 °FClear.2 mph86%30.18 "Hg10 mi
3:22 AM21 °FClear.No wind86%30.18 "Hg10 mi
2:21 AM23 °FClear.2 mph80%30.18 "Hg10 mi
12:25 AM25 °FClear.2 mph80%30.18 "Hg10 mi
11:22 PM
Thu, Feb 11
25 °FClear.2 mph86%30.18 "Hg10 mi
10:22 PM28 °FClear.2 mph74%30.18 "Hg10 mi
9:21 PM28 °FClear.No wind80%30.18 "Hg10 mi
8:22 PM30 °FClear.2 mph80%30.15 "Hg10 mi
7:22 PM32 °FPassing clouds.2 mph69%30.12 "HgN/A
Weather by CustomWeather, © 2016

See weather overviewHow to use our weather pages